Regional Weather Roundup
Issued by NWS

Home | Current Version | Previous Version | Graphics & Text | Print | Product List | Glossary On
Versions: 1 2 3 4 5 6 7 8 9 10 11 12 13 14 15 16 17 18 19 20 21 22 23 24 25 26 27 28 29 30 31 32 33 34 35 36 37 38 39 40 41 42 43 44 45 46 47 48 49 50
000
ASUS43 KDTX 062110
RWRMI
MICHIGAN HOURLY REGIONAL WEATHER ROUNDUP
NATIONAL WEATHER SERVICE DETROIT/PONTIAC MI
500 PM EDT WED MAY 06 2015

NOTE: "FAIR" INDICATES FEW OR NO CLOUDS BELOW 12,000 FEET WITH NO
SIGNIFICANT WEATHER AND/OR OBSTRUCTION TO VISIBILITY.

MIZ047>049-052>055-059>063-066>070-074>076-081>083-062200-
SOUTHEAST LOWER MICHIGAN

CITY           SKY/WX    TMP DP  RH WIND       PRES   REMARKS
ADRIAN         MOSUNNY   65  59  81 SE6       30.20F HAZE
ALMA           SUNNY     73  58  58 CALM      30.17F
ANN ARBOR      SUNNY     72  61  68 S10       30.18F
BAD AXE        CLOUDY    70  54  57 S5        30.20F
CARO           MOSUNNY   72  56  58 CALM      30.18F
DETROIT CITY   SUNNY     67  57  70 E6        30.20F
DETROIT        MOSUNNY   71  59  65 VRB3      30.19F
FLINT          SUNNY     75  57  53 CALM      30.18F
GROSSE ILE     SUNNY     59  54  82 S7        30.19F HAZE
HILLSDALE      SUNNY     70  62  76 SE7       30.18F
HOWELL         SUNNY     73  59  60 CALM      30.17F

CITY           SKY/WX    TMP DP  RH WIND       PRES   REMARKS
JACKSON        SUNNY     71  60  68 SE7       30.18F
LAMBERTVILLE   MOSUNNY   64  57  77 E6        30.20F HAZE
LANSING        SUNNY     73  60  63 E7        30.18F
LAPEER         CLOUDY    69  56  65 CALM      30.20S
MASON          SUNNY     71  61  70 SE3       30.17F
MONROE         SUNNY     64  55  72 SE7       30.19S HAZE
MT. CLEMENS    PTSUNNY   68  58  71 CALM      30.18F
PONTIAC        MOSUNNY   71  57  61 E7        30.18F
PORT HOPE        N/A     49  42  77 E5        30.21F
PORT HURON     PTSUNNY   72  57  60 CALM      30.19F
TRI CITIES     SUNNY     74  53  48 VRB3      30.19F
MIDLAND        FAIR      73  52  47 SE3       30.17F
TROY           PTSUNNY   73  58  60 E8        30.20F
SAGINAW HB     SUNNY     73  54  49 NE7       30.18F
$$
MIZ043>046-050>051-056>058-064>065-071>073-077>080-062200-
SOUTHWEST LOWER MICHIGAN

CITY           SKY/WX    TMP DP  RH WIND       PRES   REMARKS
BATTLE CREEK   SUNNY     76  62  62 S6        30.16F
BENTON HARBOR  SUNNY     77  59  53 VRB5      30.12F
BIG RAPIDS     PTSUNNY   74  55  51 CALM      30.15F
COLDWATER      SUNNY     72  61  68 S5        30.17F
FREMONT        FAIR      76  54  45 E7        30.14F
HOLLAND        MOSUNNY   77  62  59 E7        30.14F
GRAND RAPIDS   MOSUNNY   74  60  61 VRB6      30.16F
IONIA          FAIR      73  60  64 E6        30.16F
KALAMAZOO      SUNNY     77  62  59 S5        30.15F
LUDINGTON      SUNNY     71  55  56 N5        30.15F
MARSHALL       SUNNY     74  62  65 SE6       30.16S
MOUNT PLEASANT SUNNY     74  55  51 CALM      30.17S
MUSKEGON       PTSUNNY   75  58  55 W5        30.14F
SOUTH HAVEN    SUNNY     78  58  49 W6        30.12F
$$
MIZ016>042-062200-
NORTHERN LOWER MICHIGAN

CITY           SKY/WX    TMP DP  RH WIND       PRES   REMARKS
ALPENA         MOSUNNY   62  46  55 E12       30.22F
BEAVER ISLAND  MOSUNNY   63  34  34 E7        30.19F
BELLAIRE       CLOUDY    76  49  38 S7        30.15F
CADILLAC       PTSUNNY   73  56  53 SE5       30.16F
CHARLEVOIX     PTSUNNY   61  40  46 N5        30.20F
FRANKFORT      PTSUNNY   71  44  38 N7        30.15F
GAYLORD        PTSUNNY   71  45  39 SW6       30.17F
GRAYLING       MOSUNNY   73  49  43 SW3       30.18F
HARBOR SPRINGS MOSUNNY   55  36  48 CALM      30.17F
HOUGHTON LAKE  MOSUNNY   72  51  47 S8        30.18F
MANISTEE       SUNNY     63  46  55 NW8       30.17S
OSCODA         SUNNY     57  47  68 E8        30.22F
PELLSTON       PTSUNNY   70  42  36 E14       30.17F
ROGERS CITY    MOSUNNY   65  46  50 E9        30.20F
TRAVERSE CITY  PTSUNNY   62  43  49 NE6       30.15F
$$
MIZ007>008-015-062200-
EASTERN UPPER MICHIGAN

CITY           SKY/WX    TMP DP  RH WIND       PRES   REMARKS
KINROSS        SUNNY     70  21  16 SE12      30.19F
MACKINAC ISLAN MOSUNNY   51  41  69 E12G18    30.19F
NEWBERRY       SUNNY     71   9   9 SW10G21   30.16F
S. S. MARIE    MOSUNNY   69  33  26 SE12G17   30.18F
MUNISING         N/A     75  28  17 S12G18    30.12F
$$
MIZ004>006-011>014-085-062200-
CENTRAL UPPER MICHIGAN

CITY           SKY/WX    TMP DP  RH WIND       PRES   REMARKS
MANISTIQUE     MOSUNNY   63  33  32 SE8       30.18F
ESCANABA       PTSUNNY   57  37  47 SE7       30.18S
MENOMINEE      PTSUNNY   57  43  58 E8        30.15F
SAWYER-GWINN   SUNNY     70  32  24 SE14      30.15F
$$
MIZ001>003-009>011-084-062200-
WESTERN UPPER MICHIGAN

CITY           SKY/WX    TMP DP  RH WIND       PRES   REMARKS
IRON MOUNTAIN  MOSUNNY   69  51  52 SE8       30.12F
HOUGHTON       PTSUNNY   68  32  26 E8        30.10F
COPPER HARBOR    N/A     68  29  23 S9G17     30.09F
IRONWOOD       CLOUDY    70  57  64 SE10      30.02F
$$

ABBREVIATIONS USED IN REMARKS
   TC - TEMPERATURE IN CELSIUS
  WCI - WIND CHILL INDEX
   HX - HEAT INDEX
  VSB - VISIBILITY




USA.gov is the U.S. government's official web portal to all federal, state and local government web resources and services.